Overview Statistics Trail Chart Weather Telemetry Raw packets
 

This is the latest recevied weather packets stored in our database for station/object WB5RFA. If no packets are shown the sender has not sent any weather packets the latest 10 day(s).

<< 1 2 3 4 5 6 >>
Time Temp. Humidity Pressure Rain* Wind** Luminosity Snow
1788551620 35.56° C 48% 1009.6 hPa 0 mm - - -
1788551140 35° C 48% 1009.7 hPa 0 mm - - -
1788550660 35° C 48% 1009.8 hPa 0 mm - - -
1788550179 35° C 46% 1009.8 hPa 0 mm - - -
1788549699 35° C 49% 1009.8 hPa 0 mm - - -
1788549219 35° C 48% 1009.8 hPa 0 mm - - -
1788548739 35° C 47% 1009.9 hPa 0 mm - - -
1788548258 34.44° C 46% 1010 hPa 0 mm - - -
1788547780 34.44° C 48% 1010 hPa 0 mm - - -
1788547300 34.44° C 49% 1010.1 hPa 0 mm - - -
1788546819 34.44° C 48% 1010.3 hPa 0 mm - - -
1788546339 33.89° C 51% 1010.2 hPa 0 mm - - -
1788545859 34.44° C 49% 1010.2 hPa 0 mm - - -
1788545378 34.44° C 51% 1010.3 hPa 0 mm - - -
1788544898 34.44° C 50% 1010.3 hPa 0 mm - - -
1788544420 34.44° C 51% 1010.4 hPa 0 mm - - -
1788543939 33.89° C 51% 1010.5 hPa 0 mm - - -
1788543459 33.89° C 53% 1010.6 hPa 0 mm - - -
1788542979 33.33° C 52% 1010.7 hPa 0 mm - - -
1788542498 33.33° C 54% 1010.7 hPa 0 mm - - -
1788542018 32.78° C 53% 1010.8 hPa 0 mm - - -
1788541540 32.78° C 54% 1010.8 hPa 0 mm - - -
1788541059 32.78° C 54% 1010.8 hPa 0 mm - - -
1788540579 32.22° C 55% 1011 hPa 0 mm - - -
1788540099 32.22° C 56% 1011 hPa 0 mm - - -

* Rain latest hour (hover to see other rain measurements)
** Current wind speed in m/s (hover to see current wind gust speed)